sat.trackr.live / text

‹ back to catalog

STARLINK-36248

NORAD 68979 · 2026-099AE

PAYLOAD ACTIVE UNKNOWN

§ Identity

Operator
Country
US
Launch date
2026-05-01
Launch site
AFETR
Launch vehicle
Mass (kg)
RCS (m²)

Purposes: comms

External: N2YO · Heavens-Above · Gunter

§ Orbital elements

Epoch: 2026-05-25T04:00:03.998880Z

Period
92.45 min
Inclination
53.1588°
Eccentricity
0.0001099
Mean motion
15.57597279 rev/d
Perigee alt
393.9 km
Apogee alt
395.4 km
Semi-major
6,772.8 km
B*
-2.8098e-2
RAAN
270.1635°
Arg perigee
77.2739°
Mean anomaly
168.6986°
Rev number
501

§ Raw data

STARLINK-362481 68979U 26099AE  26145.16671295 -.01869477  00000+0 -28098-1 0  99912 68979  53.1588 270.1635 0001099  77.2739 168.6986 15.57597279  5016

JSON: /api/v1/satellites/68979 · /tle

For live sub-satellite position, see the globe view (requires WebGL).

§ Visibility from observer

Set your observer location to see the next 7 days of passes ≥ 10°. The values pass through the URL so the page stays shareable.

No JS? Fill the form by hand. The geolocation button needs JavaScript.